• en Suisse
  • Liste des pays
  • À 7 jours
  • Température de l'eau
  • Carte satellitaire
  • Carte météo
  • Widgets météo
  • user-avatar
    Se connecter

    Météo par heure à Bukavu

    Ce jour, 17 Décembre, Dimanche

    Heure Température Précipitation Vent Pression Humidité
    00:00 +24°C° 0 mm 1 m/s 687 mmHg 45%
    01:00 +24°C° 0 mm 1 m/s 687 mmHg 46%
    02:00 +22°C° 0 mm 1 m/s 687 mmHg 49%
    03:00 +22°C° 0 mm 1 m/s 687 mmHg 50%
    04:00 +20°C° 0 mm 0 m/s 687 mmHg 51%
    05:00 +19°C° 0 mm 0 m/s 687 mmHg 52%
    06:00 +21°C° 0 mm 0 m/s 687 mmHg 50%
    07:00 +22°C° 0 mm 0 m/s 688 mmHg 48%
    08:00 +23°C° 0 mm 0 m/s 688 mmHg 47%
    09:00 +27°C° 0 mm 1 m/s 688 mmHg 40%
    10:00 +30°C° 0 mm 1 m/s 689 mmHg 33%
    11:00 +33°C° 0 mm 1 m/s 689 mmHg 26%
    12:00 +34°C° 0 mm 1 m/s 688 mmHg 24%
    13:00 +36°C° 0 mm 1 m/s 688 mmHg 22%
    14:00 +37°C° 0 mm 1 m/s 687 mmHg 20%
    15:00 +36°C° 0 mm 1 m/s 687 mmHg 24%
    16:00 +34°C° 0 mm 1 m/s 686 mmHg 29%
    17:00 +32°C° 0 mm 1 m/s 685 mmHg 33%
    18:00 +31°C° 0 mm 1 m/s 686 mmHg 35%
    19:00 +29°C° 0 mm 1 m/s 686 mmHg 37%
    20:00 +28°C° 0 mm 1 m/s 686 mmHg 39%
    21:00 +26°C° 0 mm 0 m/s 686 mmHg 39%
    22:00 +25°C° 0 mm 0 m/s 687 mmHg 40%
    23:00 +25°C° 0 mm 0 m/s 687 mmHg 40%

    Demain, 18 Décembre, Lundi

    Heure Température Précipitation Vent Pression Humidité
    00:00 +25°C° 0 mm 0 m/s 687 mmHg 42%
    01:00 +24°C° 0 mm 0 m/s 687 mmHg 44%
    02:00 +23°C° 0 mm 0 m/s 686 mmHg 46%
    03:00 +23°C° 0 mm 0 m/s 686 mmHg 48%
    04:00 +22°C° 0 mm 0 m/s 687 mmHg 50%
    05:00 +22°C° 0 mm 0 m/s 687 mmHg 52%
    06:00 +23°C° 0 mm 0 m/s 687 mmHg 50%
    07:00 +25°C° 0 mm 0 m/s 688 mmHg 48%
    08:00 +26°C° 0 mm 0 m/s 689 mmHg 46%
    09:00 +28°C° 0 mm 0 m/s 689 mmHg 41%
    10:00 +31°C° 0 mm 0 m/s 689 mmHg 35%
    11:00 +33°C° 0 mm 0 m/s 689 mmHg 30%
    12:00 +33°C° 0 mm 0 m/s 688 mmHg 29%
    13:00 +35°C° 0 mm 1 m/s 687 mmHg 29%
    14:00 +34°C° 0 mm 1 m/s 687 mmHg 28%
    15:00 +33°C° 0 mm 1 m/s 686 mmHg 31%
    16:00 +31°C° 0 mm 0 m/s 686 mmHg 34%
    17:00 +30°C° 0 mm 0 m/s 685 mmHg 37%
    18:00 +28°C° 0 mm 0 m/s 685 mmHg 40%
    19:00 +26°C° 0 mm 0 m/s 685 mmHg 42%
    20:00 +24°C° 0 mm 0 m/s 686 mmHg 45%
    21:00 +24°C° 0 mm 0 m/s 686 mmHg 45%
    22:00 +24°C° 0 mm 0 m/s 686 mmHg 45%
    23:00 +24°C° 0 mm 0 m/s 686 mmHg 45%

    Après-demain, 19 Décembre, Mardi

    Heure Température Précipitation Vent Pression Humidité
    00:00 +24°C° 0 mm 0 m/s 686 mmHg 45%
    01:00 +24°C° 0 mm 0 m/s 686 mmHg 45%
    02:00 +24°C° 0 mm 0 m/s 686 mmHg 46%
    03:00 +24°C° 0 mm 0 m/s 686 mmHg 47%
    04:00 +24°C° 0 mm 0 m/s 686 mmHg 48%
    05:00 +23°C° 0 mm 0 m/s 686 mmHg 49%
    06:00 +24°C° 0 mm 0 m/s 687 mmHg 48%
    07:00 +24°C° 0 mm 0 m/s 688 mmHg 48%
    08:00 +25°C° 0 mm 0 m/s 688 mmHg 48%
    09:00 +30°C° 0 mm 1 m/s 689 mmHg 42%
    10:00 +32°C° 0 mm 1 m/s 689 mmHg 35%
    11:00 +36°C° 0 mm 2 m/s 689 mmHg 28%
    12:00 +36°C° 0 mm 2 m/s 688 mmHg 28%
    13:00 +36°C° 0 mm 2 m/s 687 mmHg 28%
    14:00 +36°C° 0 mm 2 m/s 686 mmHg 28%
    15:00 +33°C° 0 mm 1 m/s 686 mmHg 34%
    16:00 +31°C° 0 mm 1 m/s 685 mmHg 40%
    17:00 +30°C° 0 mm 1 m/s 685 mmHg 45%
    18:00 +29°C° 0 mm 1 m/s 685 mmHg 50%
    19:00 +27°C° 0 mm 1 m/s 686 mmHg 54%
    20:00 +26°C° 0 mm 1 m/s 686 mmHg 58%
    21:00 +26°C° 0 mm 1 m/s 687 mmHg 59%
    22:00 +26°C° 0 mm 1 m/s 687 mmHg 61%
    23:00 +26°C° 0 mm 1 m/s 687 mmHg 62%

    20 Décembre, Mercredi

    Heure Température Précipitation Vent Pression Humidité
    00:00 +23°C° 0 mm 0 m/s 687 mmHg 66%
    01:00 +22°C° 0 mm 0 m/s 687 mmHg 70%
    02:00 +21°C° 0 mm 0 m/s 686 mmHg 73%
    03:00 +20°C° 0,2 mm 0 m/s 686 mmHg 78%
    04:00 +20°C° 0,2 mm 0 m/s 687 mmHg 82%
    05:00 +19°C° 0,2 mm 0 m/s 687 mmHg 86%
    06:00 +20°C° 0 mm 0 m/s 687 mmHg 83%
    07:00 +21°C° 0 mm 0 m/s 688 mmHg 79%
    08:00 +22°C° 0 mm 0 m/s 689 mmHg 76%
    09:00 +26°C° 0 mm 0 m/s 689 mmHg 62%
    10:00 +31°C° 0 mm 1 m/s 689 mmHg 49%
    11:00 +34°C° 0 mm 1 m/s 690 mmHg 36%
    12:00 +34°C° 0 mm 1 m/s 689 mmHg 33%
    13:00 +35°C° 0 mm 1 m/s 687 mmHg 31%
    14:00 +35°C° 0 mm 1 m/s 686 mmHg 29%
    15:00 +34°C° 0 mm 1 m/s 686 mmHg 30%
    16:00 +34°C° 0 mm 1 m/s 686 mmHg 31%
    17:00 +33°C° 0 mm 1 m/s 685 mmHg 32%
    18:00 +31°C° 0 mm 1 m/s 686 mmHg 37%
    19:00 +29°C° 0 mm 1 m/s 686 mmHg 42%
    20:00 +27°C° 0 mm 1 m/s 686 mmHg 47%
    21:00 +25°C° 0 mm 0 m/s 687 mmHg 49%
    22:00 +24°C° 0 mm 0 m/s 687 mmHg 52%
    23:00 +24°C° 0 mm 0 m/s 687 mmHg 55%

    21 Décembre, Jeudi

    Heure Température Précipitation Vent Pression Humidité
    00:00 +24°C° 0 mm 0 m/s 687 mmHg 57%
    01:00 +23°C° 0 mm 0 m/s 687 mmHg 58%
    02:00 +23°C° 0 mm 0 m/s 687 mmHg 60%
    03:00 +23°C° 0 mm 0 m/s 687 mmHg 62%
    04:00 +22°C° 0 mm 0 m/s 687 mmHg 64%
    05:00 +21°C° 0 mm 0 m/s 687 mmHg 66%
    06:00 +25°C° 0 mm 1 m/s 688 mmHg 61%
    07:00 +26°C° 0 mm 1 m/s 689 mmHg 56%
    08:00 +28°C° 0 mm 1 m/s 690 mmHg 51%
    09:00 +30°C° 0 mm 1 m/s 690 mmHg 42%
    10:00 +33°C° 0 mm 1 m/s 690 mmHg 33%
    11:00 +36°C° 0 mm 1 m/s 690 mmHg 24%
    12:00 +37°C° 0 mm 1 m/s 689 mmHg 21%
    13:00 +37°C° 0 mm 1 m/s 688 mmHg 19%
    14:00 +39°C° 0 mm 2 m/s 687 mmHg 16%
    15:00 +37°C° 0 mm 1 m/s 687 mmHg 19%
    16:00 +35°C° 0 mm 1 m/s 686 mmHg 22%
    17:00 +33°C° 0 mm 1 m/s 686 mmHg 25%
    18:00 +32°C° 0 mm 1 m/s 686 mmHg 28%
    19:00 +30°C° 0 mm 1 m/s 686 mmHg 31%
    20:00 +28°C° 0 mm 1 m/s 687 mmHg 34%
    21:00 +27°C° 0 mm 1 m/s 687 mmHg 40%
    22:00 +26°C° 0 mm 1 m/s 687 mmHg 46%
    23:00 +25°C° 0 mm 1 m/s 687 mmHg 51%

    22 Décembre, Vendredi

    Heure Température Précipitation Vent Pression Humidité
    00:00 +24°C° 0 mm 1 m/s 687 mmHg 57%
    01:00 +23°C° 0 mm 1 m/s 687 mmHg 62%
    02:00 +23°C° 0 mm 1 m/s 687 mmHg 68%
    03:00 +20°C° 0,2 mm 0 m/s 687 mmHg 72%
    04:00 +19°C° 0,2 mm 0 m/s 687 mmHg 76%
    05:00 +19°C° 0,2 mm 0 m/s 687 mmHg 80%
    06:00 +20°C° 0 mm 0 m/s 688 mmHg 74%
    07:00 +24°C° 0 mm 1 m/s 689 mmHg 69%
    08:00 +26°C° 0 mm 1 m/s 690 mmHg 64%
    09:00 +29°C° 0 mm 1 m/s 690 mmHg 52%
    10:00 +32°C° 0 mm 1 m/s 690 mmHg 41%
    11:00 +36°C° 0 mm 1 m/s 690 mmHg 30%
    12:00 +36°C° 0 mm 1 m/s 689 mmHg 28%
    13:00 +36°C° 0 mm 1 m/s 688 mmHg 25%
    14:00 +37°C° 0 mm 1 m/s 687 mmHg 23%
    15:00 +35°C° 0 mm 1 m/s 686 mmHg 26%
    16:00 +34°C° 0 mm 1 m/s 686 mmHg 30%
    17:00 +33°C° 0 mm 1 m/s 686 mmHg 33%
    18:00 +31°C° 0 mm 1 m/s 686 mmHg 40%
    19:00 +28°C° 0 mm 1 m/s 686 mmHg 47%
    20:00 +26°C° 0 mm 1 m/s 686 mmHg 54%
    21:00 +23°C° 0 mm 0 m/s 686 mmHg 56%
    22:00 +23°C° 0 mm 0 m/s 686 mmHg 59%
    23:00 +22°C° 0 mm 0 m/s 686 mmHg 61%
    Voir plus